Вернуться в каталог

FENGYUN 1C DEB

LostPO
NORAD 37076·DEBRIS·🇨🇳 China

Запущен May 10, 1999 с Taiyuan Satellite Launch Center

Loading…

Ближайшие Пролёты (ближайшие 24 часа)

TLE

УстаревшееSource: Space-Track

Эпоха: Jan 1, 2024, 21:34 UTC

1 37076U 99025EFL 24001.89911464  .00005402  00000-0  26361-2 0  9998
2 37076  98.2989 246.0654 0171295 295.1315  63.2172 14.11055522778715

Отслеживайте FENGYUN 1C DEB в реальном времени с AllMySat

Download on the App Store